This is the latest recevied weather packets stored in our database for station/object KG5EO. If no packets are shown the sender has not sent any weather packets the latest 10 day(s).
| Time | Temp. | Humidity | Pressure | Rain* | Wind** | Luminosity | Snow |
|---|---|---|---|---|---|---|---|
| 1777723877 | 15° C | 45% | 41 hPa | 0 mm | - | - | - |
| 1777723576 | 15° C | 46% | 41 hPa | 0 mm | - | - | - |
| 1777723275 | 15.56° C | 45% | 41 hPa | 0 mm | - | - | - |
| 1777722976 | 15.56° C | 45% | 41 hPa | 0 mm | - | - | - |
| 1777722675 | 15.56° C | 45% | 41 hPa | 0 mm | - | - | - |
| 1777722375 | 16.11° C | 40% | 41 hPa | 0 mm | - | - | - |
| 1777722075 | 16.11° C | 43% | 41 hPa | 0 mm | - | - | - |
| 1777721775 | 15.56° C | 41% | 41 hPa | 0 mm | - | - | - |
| 1777721474 | 15.56° C | 41% | 41 hPa | 0 mm | - | - | - |
| 1777721174 | 15° C | 43% | 41 hPa | 0 mm | - | - | - |
| 1777720874 | 15° C | 45% | 41 hPa | 0 mm | - | - | - |
| 1777720574 | 15.56° C | 48% | 41 hPa | 0 mm | - | - | - |
| 1777720275 | 15.56° C | 41% | 41 hPa | 0 mm | - | - | - |
| 1777719974 | 15.56° C | 42% | 41 hPa | 0 mm | - | - | - |
| 1777719673 | 15.56° C | 42% | 41 hPa | 0 mm | - | - | - |
| 1777719375 | 16.11° C | 42% | 41 hPa | 0 mm | - | - | - |
| 1777719075 | 16.11° C | 41% | 41 hPa | 0 mm | - | - | - |
| 1777718773 | 16.11° C | 39% | 41 hPa | 0 mm | - | - | - |
| 1777718473 | 16.11° C | 38% | 41 hPa | 0 mm | - | - | - |
| 1777718173 | 16.11° C | 39% | 41 hPa | 0 mm | - | - | - |
| 1777717873 | 16.11° C | 38% | 40.9 hPa | 0 mm | - | - | - |
| 1777717572 | 16.67° C | 39% | 41 hPa | 0 mm | - | - | - |
| 1777717272 | 16.67° C | 37% | 41 hPa | 0 mm | - | - | - |
| 1777716972 | 17.22° C | 37% | 40.9 hPa | 0 mm | - | - | - |
| 1777716672 | 17.22° C | 34% | 40.9 hPa | 0 mm | - | - | - |
* Rain latest hour (hover to see other rain measurements)
** Current wind speed in m/s (hover to see current wind gust speed)